Regional Weather Roundup
Issued by NWS Sterling, VA

Home | Current Version | Previous Version | Graphics & Text | Print | Product List | Glossary On
Versions: 1 2 3 4 5 6 7 8 9 10 11 12 13 14 15 16 17 18 19 20 21 22 23 24 25 26 27 28 29 30 31 32 33 34 35 36 37 38 39
000
ASUS41 KLWX 210310
RWRLWX

REGIONAL WEATHER ROUNDUP
NATIONAL WEATHER SERVICE BALTIMORE MD/WASHINGTON DC
1100 PM EDT MON OCT 20 2014

Note: "FAIR" indicates few or no clouds below 12,000 feet
with no significant weather and/or obstructions to visibility.
 TC=TEMPERATURE CELSIUS

 * =Non NWS site. Station does not report precipitation (e.g. rain,
    snow, etc.), thunder, or fog.

DCZ001-MDZ009-015-VAZ040>042-051-053>054-210400-
WASHINGTON METRO

CITY           SKY/WX    TMP DP  RH WIND       PRES   REMARKS
WASHINGTON NAT LGT RAIN  59  47  64 S8        29.97S
DULLES         LGT RAIN  56  48  74 S13G22    29.95F
ANDREWS AFB    CLOUDY    54  45  73 S8        29.96S
FT BELVOIR     LGT RAIN  54  52  94 CALM      29.97S
QUANTICO       LGT RAIN  60  46  59 SW6       29.98R
COLLEGE PARK*  CLOUDY    54  50  87 CALM      29.96S
LEESBURG*      CLOUDY    55  54  94 CALM      29.94F
MANASSAS*      CLOUDY    55  54  94 SE6       29.96S
GAITHERSBURG*  CLOUDY    55  46  71 SE8       29.98F

$$

MDZ006>007-011-014-210400-
BALTIMORE METRO

CITY           SKY/WX    TMP DP  RH WIND       PRES   REMARKS
BWI AIRPORT    MOCLDY    57  43  59 CALM      29.95F
MD SCIENCE CTR   N/A     59  43  55 MISG      29.96F
MARTIN STATE   MOCLDY    61  46  59 CALM      29.97S
ANNAPOLIS      PTCLDY    60  42  51 S6        29.96F
FORT MEADE*    MOCLDY    50  46  87 CALM      29.98S

$$

MDZ012-015-019>023-210400-
MARYLAND EASTERN SHORE

CITY           SKY/WX    TMP DP  RH WIND       PRES   REMARKS
OCEAN CITY     MOCLDY    52  47  83 CALM      29.99F
SALISBURY      CLOUDY    51  46  83 E3        29.99F
BAY BRIDGE AP*   N/A     61  43  51 S6        29.97S
CAMBRIDGE*     MOCLDY    55  48  76 S3        29.98S
EASTON*        MOCLDY    55  49  80 CALM      30.01

$$

MDZ017>025-210400-
SOUTHERN MARYLAND

CITY           SKY/WX    TMP DP  RH WIND       PRES   REMARKS
PATUXENT RIVER MOCLDY    55  45  68 CALM      29.97F
ST INIGOES     MOCLDY    59  45  59 S5        29.97S
LEONARDTOWN*   MOCLDY    55  43  62 CALM      29.99S

$$

MDZ003>005-210400-
NORTH CENTRAL MARYLAND

CITY           SKY/WX    TMP DP  RH WIND       PRES   REMARKS
FREDERICK*     CLOUDY    59  50  72 CALM      29.96S
HAGERSTOWN APT CLOUDY    55  47  74 CALM      29.93S
WESTMINSTER*   RAIN      54  52  94 SE9       29.93F

$$

MDZ501>502-210400-
WESTERN MARYLAND

CITY           SKY/WX    TMP DP  RH WIND       PRES   REMARKS
OAKLAND*       CLOUDY    46  45  93 SW8       29.92S
CUMBERLAND*    MOCLDY    50  45  81 CALM      29.96F

$$

VAZ025>031-210400-
SHENANDOAH VALLEY

CITY           SKY/WX    TMP DP  RH WIND       PRES   REMARKS
WINCHESTER*    CLOUDY    54  48  82 NW3       29.93S
FRONT ROYAL*   CLOUDY    52  46  82 CALM      29.92F
LURAY*         CLOUDY    55  52  88 CALM      29.93F
NEW MARKET*    CLOUDY    56  50  79 SW5       29.93S
STAUNTON*      CLOUDY    58  47  68 S6        29.96S
WAYNESBORO*    CLOUDY    55  47  77 CALM      29.95S

$$

WVZ021-048>050-054>055-210400-
EASTERN WEST VIRGINIA PANHANDLE

CITY           SKY/WX    TMP DP  RH WIND       PRES   REMARKS
MARTINSBURG    CLOUDY    53  48  83 CALM      29.94R
PETERSBURG*    MOCLDY   N/A N/A N/A CALM      29.94S

$$

VAZ036>039-050-210400-
CENTRAL FOOTHILLS

CITY           SKY/WX    TMP DP  RH WIND       PRES   REMARKS
CHARLOTTESVILL CLOUDY    54  51  90 CALM      29.94F
CULPEPER*      CLOUDY    57  52  82 CALM      29.95F
ORANGE*        CLOUDY    57  50  77 CALM      29.97S
GORDONSVILLE*  CLOUDY    53  51  95 CALM      29.95S
WARRENTON*     CLOUDY    56  54  92 SE6       29.94F

$$

VAZ055>057-210400-
NORTH AND CENTRAL PIEDMONT

CITY           SKY/WX    TMP DP  RH WIND       PRES   REMARKS
FREDERICKSBRG* LGT RAIN  59  47  66 S7        29.96S
STAFFORD*      LGT RAIN  55  46  71 CALM      30.00S

$$

NCZ024-NYZ072-PAZ021-071-VAZ022-071-210400-
OTHER REGIONAL OBSERVATIONS

CITY           SKY/WX    TMP DP  RH WIND       PRES   REMARKS
NEW YORK CITY  MOCLDY    58  44  60 CALM      30.00S
PHILADELPHIA   CLOUDY    56  43  61 S8        29.98S
PITTSBURGH     LGT RAIN  51  46  83 S5        29.88S
ROANOKE        CLOUDY    57  42  57 W3        29.98S
RICHMOND       PTCLDY    56  44  64 CALM      29.97S
RALEIGH        MOCLDY    52  48  86 CALM      29.99S

$$

ANZ530>537-210400-
MARINE OBSERVATIONS

STATION/POSITION TIME  TEMP    WIND        PRES
                       AIR SEA DIR/SP/G
                 (UTC) (F)     (DEG/KT/KT) (MB)
THOMAS PT LIGHT  0300   62 64  200/ 15/ 16 1015.6F

$$



USA.gov is the U.S. government's official web portal to all federal, state and local government web resources and services.